LEASAT 5

Last updated on Mon Jan 25 2016 08:59:57 GMT+0000 (Coordinated Universal Time)

1 20410U 90002B 16021.93729532 -.00000344 00000-0 00000+0 0 9999 2 20410 11.5322 15.9995 0003765 290.5089 274.3691 0.99596092 80576

Satellite not in orbit

LEASAT 5